Satellite: METEOR-M Catalog number: 35865 Epoch time: 11062.73501566 Element set: 153 Inclination: 098.7212 deg RA of node: 119.1671 deg Eccentricity: 0.0002649 Arg of perigee: 356.0011 deg Mean anomaly: 004.1100 deg Mean motion: 14.21834763 rev/day Decay rate: 1.76e-06 rev/day^2 Epoch rev: 7560 Checksum: 258
Satellite: RS-38 Catalog number: 35869 Epoch time: 11062.74775155 Element set: 162 Inclination: 098.7183 deg RA of node: 119.2199 deg Eccentricity: 0.0004607 Arg of perigee: 345.1749 deg Mean anomaly: 014.9255 deg Mean motion: 14.22001342 rev/day Decay rate: 1.77e-06 rev/day^2 Epoch rev: 7561 Checksum: 309
/EX
participants (1)
-
Ray Hoad